Location: Waldport
(44.4270°N, 124.0680°W)
Time: 19:57:08
(UTC-07:00)

Amateur Radio Satellites - All Passes

Search period start: 25 October 2014 19:27
Search period end: 26 October 2014 19:27
Location: Waldport, 44.4270°N, 124.0680°W

Satellite Date Start Highest point End Downlink Frequencies (MHz)
Time Altitude Azimuth
JAS-2 25 Oct 19:27:29 19:31:58 21° 273° (W) 19:36:53 435.800 - 435.900 CW/SSB, 435.910 FM
SO-67 25 Oct 19:38:06 19:41:31 76° 258° (WSW) 19:44:59 435.3500 MHz FM
KITSAT 1 25 Oct 19:38:19 19:45:02 28° 33° (NNE) 19:51:43 435.175 FM
SO-50 25 Oct 20:01:13 20:04:09 16° 33° (NNE) 20:07:06 436.795 FM
OPAL 25 Oct 20:16:54 20:20:09 18° 302° (WNW) 20:23:22 ?
RS-15 25 Oct 20:21:27 20:21:53 10° 92° (E) 20:22:18 29.354 - 29.394 USB, Beacon 29.352 USB
STRAND 1 25 Oct 20:22:47 20:27:59 89° 285° (WNW) 20:33:08 ?
ISS 25 Oct 20:33:47 20:35:29 13° 228° (SW) 20:37:11 145.800 FM
HO-68 25 Oct 20:36:27 20:43:16 50° 65° (ENE) 20:50:09 435.675 MHz FM
UKube-1 25 Oct 20:45:45 20:48:11 15° 61° (ENE) 20:50:38 145.840 MHz, 145.915 MHz
UOSAT-12 25 Oct 21:19:59 21:21:34 11° 26° (NNE) 21:23:08 437.025 FM, 437.400 FM
Oscar 11 25 Oct 21:24:42 21:28:28 30° 68° (ENE) 21:32:16 145.825 FM, Beacon 2401.500 USB
FUNcube-1 25 Oct 21:26:41 21:29:24 16° 62° (ENE) 21:32:07 145.950 - 145.970 MHz USB
KITSAT 1 25 Oct 21:33:29 21:41:38 85° 57° (ENE) 21:49:43 435.175 FM
SO-50 25 Oct 21:40:43 21:45:34 71° 53° (NE) 21:50:26 436.795 FM
STRAND 1 25 Oct 22:03:56 22:06:24 14° 303° (WNW) 22:08:53 ?
Oscar 10/S400 25 Oct 22:07:00 22:51:39 43° 207° (SSW) 05:21:17 145.825 - 145.975 CW/USB, Beacon 145.810 USB
ZACube-1 25 Oct 22:16:28 22:20:51 47° 72° (ENE) 22:25:11 437.345 MHz
UKube-1 25 Oct 22:19:34 22:23:53 63° 258° (WSW) 22:28:14 145.840 MHz, 145.915 MHz
RS-15 25 Oct 22:20:55 22:31:30 56° 114° (ESE) 22:42:00 29.354 - 29.394 USB, Beacon 29.352 USB
HO-68 25 Oct 22:24:46 22:31:10 35° 264° (W) 22:37:38 435.675 MHz FM
UOSAT-12 25 Oct 22:58:24 23:02:57 44° 48° (NE) 23:07:25 437.025 FM, 437.400 FM
FUNcube-1 25 Oct 23:00:47 23:05:19 62° 259° (W) 23:09:48 145.950 - 145.970 MHz USB
Oscar 11 25 Oct 23:00:59 23:04:39 26° 265° (W) 23:08:19 145.825 FM, Beacon 2401.500 USB
SO-50 25 Oct 23:22:34 23:25:36 17° 250° (WSW) 23:28:39 436.795 FM
KITSAT 1 25 Oct 23:30:16 23:36:03 22° 257° (WSW) 23:41:50 435.175 FM
ZACube-1 25 Oct 23:54:14 23:57:28 19° 268° (W) 00:00:41 437.345 MHz
MaSat-1 26 Oct 00:21:27 00:25:32 79° 298° (WNW) 00:29:12 437.345 MHz
RS-15 26 Oct 00:33:30 00:44:03 51° 319° (NW) 00:54:41 29.354 - 29.394 USB, Beacon 29.352 USB
UOSAT-12 26 Oct 00:38:58 00:42:53 26° 246° (WSW) 00:46:44 437.025 FM, 437.400 FM
JAS-1B 26 Oct 01:08:18 01:09:27 10° 87° (E) 01:10:36 435.800 - 435.900 CW/SSB
Oscar 16 26 Oct 01:51:04 01:54:49 20° 92° (E) 01:58:32 437.025 USB, Beacon 2401.1428
Uribyol 2 26 Oct 02:13:56 02:16:35 14° 89° (E) 02:19:13 436.500 FM
ITAMSAT 1 26 Oct 02:20:03 02:23:01 15° 89° (E) 02:25:58 435.822 SSB
Oscar 19 26 Oct 02:43:22 02:48:26 59° 101° (E) 02:53:28 437.125 CW, 437.150 USB
Gurwin Techsat 1B 26 Oct 02:47:43 02:50:42 15° 89° (E) 02:53:40 435.225 FM
RS-15 26 Oct 02:51:00 02:59:48 27° 351° (N) 03:08:46 29.354 - 29.394 USB, Beacon 29.352 USB
JAS-1B 26 Oct 02:54:16 03:00:56 65° 103° (ESE) 03:08:54 435.800 - 435.900 CW/SSB
TMSAT-1 26 Oct 02:58:20 03:00:59 14° 88° (E) 03:03:37 436.925 FM
AO-27 26 Oct 03:04:38 03:09:32 39° 98° (E) 03:14:23 436.795 MHz FM
AO-Echo 26 Oct 03:13:22 03:18:40 62° 101° (E) 03:23:55 ?
Oscar 16 26 Oct 03:29:30 03:34:29 53° 289° (WNW) 03:39:27 437.025 USB, Beacon 2401.1428
Sapphire 26 Oct 03:35:26 03:40:08 31° 110° (ESE) 03:44:51 437.095 MHz 1200 baud AX-25 AFSK
Uribyol 2 26 Oct 03:51:26 03:56:40 78° 286° (WNW) 04:01:50 436.500 FM
PCSat 26 Oct 03:57:09 04:02:22 51° 115° (ESE) 04:07:37 145.825 MHz
ITAMSAT 1 26 Oct 03:57:50 04:03:04 73° 287° (WNW) 04:08:15 435.822 SSB
OPAL 26 Oct 04:16:17 04:20:04 21° 59° (ENE) 04:23:49 ?
Oscar 19 26 Oct 04:23:42 04:27:20 20° 299° (WNW) 04:30:58 437.125 CW, 437.150 USB
Gurwin Techsat 1B 26 Oct 04:25:55 04:31:15 75° 286° (WNW) 04:36:32 435.225 FM
TMSAT-1 26 Oct 04:36:12 04:41:32 81° 286° (WNW) 04:46:50 436.925 FM
AO-27 26 Oct 04:44:25 04:48:54 30° 295° (WNW) 04:53:22 436.795 MHz FM
JAS-1B 26 Oct 04:45:54 04:51:15 27° 298° (WNW) 04:57:19 435.800 - 435.900 CW/SSB
JAS-2 26 Oct 04:50:58 04:52:56 11° 81° (E) 04:54:53 435.800 - 435.900 CW/SSB, 435.910 FM
AO-Echo 26 Oct 04:53:07 04:56:56 21° 299° (WNW) 05:00:45 ?
Uosat F 26 Oct 05:00:06 05:04:21 27° 95° (E) 05:08:34 435.120 FM
AO-7 26 Oct 05:06:42 05:14:36 45° 100° (E) 05:22:28 29.400 - 29.500 MHz
RS-15 26 Oct 05:06:52 05:16:37 34° 26° (NNE) 05:26:37 29.354 - 29.394 USB, Beacon 29.352 USB
Sapphire 26 Oct 05:18:15 05:23:24 43° 309° (NW) 05:28:35 437.095 MHz 1200 baud AX-25 AFSK
Uribyol 2 26 Oct 05:33:19 05:35:16 12° 305° (NW) 05:37:12 436.500 FM
ITAMSAT 1 26 Oct 05:40:02 05:41:38 11° 305° (NW) 05:43:14 435.822 SSB
PCSat 26 Oct 05:41:21 05:46:02 29° 314° (NW) 05:50:46 145.825 MHz
OPAL 26 Oct 05:53:30 05:58:33 57° 257° (WSW) 06:03:34 ?
STRAND 1 26 Oct 06:02:52 06:06:45 22° 62° (ENE) 06:10:40 ?
Gurwin Techsat 1B 26 Oct 06:08:25 06:10:18 12° 305° (NW) 06:12:11 435.225 FM
TMSAT-1 26 Oct 06:18:22 06:20:36 13° 304° (NW) 06:22:50 436.925 FM
JAS-2 26 Oct 06:31:42 06:39:25 59° 100° (E) 06:47:04 435.800 - 435.900 CW/SSB, 435.910 FM
Uosat F 26 Oct 06:38:32 06:43:15 40° 292° (WNW) 06:47:55 435.120 FM
Hamsat 26 Oct 06:49:26 06:53:30 47° 99° (E) 06:57:34 145.90 MHz
AO-7 26 Oct 06:59:36 07:07:24 47° 299° (WNW) 07:15:12 29.400 - 29.500 MHz
Sapphire 26 Oct 07:06:37 07:08:19 11° 332° (NNW) 07:10:03 437.095 MHz 1200 baud AX-25 AFSK
RS-15 26 Oct 07:19:40 07:30:52 82° 54° (NE) 07:42:32 29.354 - 29.394 USB, Beacon 29.352 USB
Saudisat 1A 26 Oct 07:39:03 07:43:16 48° 119° (ESE) 07:47:31 436.775 MHz
STRAND 1 26 Oct 07:40:34 07:45:34 53° 260° (W) 07:50:38 ?
JAS-2 26 Oct 08:17:14 08:24:01 35° 298° (WNW) 08:30:52 435.800 - 435.900 CW/SSB, 435.910 FM
Hamsat 26 Oct 08:26:21 08:29:06 17° 296° (WNW) 08:31:51 145.90 MHz
MaSat-1 26 Oct 08:30:59 08:32:47 16° 51° (NE) 08:34:28 437.345 MHz
SO-67 26 Oct 08:32:30 08:35:58 80° 283° (WNW) 08:39:24 435.3500 MHz FM
AO-7 26 Oct 08:55:10 08:58:08 12° 322° (NW) 09:01:05 29.400 - 29.500 MHz
Saudisat 1A 26 Oct 09:19:26 09:23:04 25° 318° (NW) 09:26:44 436.775 MHz
RS-15 26 Oct 09:33:03 09:42:06 30° 256° (WSW) 09:51:28 29.354 - 29.394 USB, Beacon 29.352 USB
HO-68 26 Oct 09:49:37 09:56:27 44° 99° (E) 10:03:13 435.675 MHz FM
MaSat-1 26 Oct 10:06:34 10:08:13 16° 253° (WSW) 10:09:49 437.345 MHz
UKube-1 26 Oct 10:06:52 10:10:02 19° 93° (E) 10:13:10 145.840 MHz, 145.915 MHz
Sapphire 26 Oct 10:40:05 10:41:08 11° 26° (NNE) 10:42:10 437.095 MHz 1200 baud AX-25 AFSK
Oscar 11 26 Oct 10:46:06 10:50:17 47° 99° (E) 10:54:26 145.825 FM, Beacon 2401.500 USB
FUNcube-1 26 Oct 10:49:02 10:52:19 22° 93° (E) 10:55:33 145.950 - 145.970 MHz USB
PCSat 26 Oct 11:01:14 11:04:06 14° 33° (NNE) 11:06:58 145.825 MHz
HO-68 26 Oct 11:37:29 11:44:05 41° 298° (WNW) 11:50:40 435.675 MHz FM
ZACube-1 26 Oct 11:40:18 11:44:35 79° 103° (ESE) 11:48:45 437.345 MHz
ISS 26 Oct 11:41:11 11:42:18 11° 131° (SE) 11:43:26 145.800 FM
UKube-1 26 Oct 11:42:16 11:46:24 42° 290° (WNW) 11:50:31 145.840 MHz, 145.915 MHz
SO-50 26 Oct 11:59:28 12:01:53 14° 109° (ESE) 12:04:20 436.795 FM
KITSAT 1 26 Oct 12:03:24 12:11:01 48° 112° (ESE) 12:18:39 435.175 FM
Sapphire 26 Oct 12:21:05 12:26:11 39° 50° (NE) 12:31:14 437.095 MHz 1200 baud AX-25 AFSK
Oscar 11 26 Oct 12:23:12 12:26:07 18° 296° (WNW) 12:29:00 145.825 FM, Beacon 2401.500 USB
FUNcube-1 26 Oct 12:24:57 12:28:49 34° 291° (WNW) 12:32:36 145.950 - 145.970 MHz USB
Oscar 19 26 Oct 12:25:34 12:28:23 15° 58° (ENE) 12:31:11 437.125 CW, 437.150 USB
PCSat 26 Oct 12:43:19 12:48:42 59° 55° (NE) 12:54:02 145.825 MHz
AO-27 26 Oct 12:49:38 12:50:56 11° 54° (NE) 12:52:14 436.795 MHz FM
AO-Echo 26 Oct 12:52:33 12:54:53 13° 57° (ENE) 12:57:16 ?
Oscar 16 26 Oct 13:09:22 13:14:02 35° 67° (ENE) 13:18:41 437.025 USB, Beacon 2401.1428
ISS 26 Oct 13:15:09 13:18:29 80° 147° (SSE) 13:21:49 145.800 FM
ZACube-1 26 Oct 13:19:03 13:20:19 11° 301° (WNW) 13:21:35 437.345 MHz
Uribyol 2 26 Oct 13:32:45 13:37:03 27° 64° (ENE) 13:41:22 436.500 FM
SO-50 26 Oct 13:37:18 13:41:48 72° 307° (NW) 13:46:28 436.795 FM
ITAMSAT 1 26 Oct 13:39:09 13:43:33 28° 64° (ENE) 13:47:58 435.822 SSB
JAS-1B 26 Oct 13:42:57 13:48:41 59° 70° (ENE) 13:54:16 435.800 - 435.900 CW/SSB
KITSAT 1 26 Oct 13:58:44 14:06:27 47° 314° (NW) 14:14:14 435.175 FM
Oscar 19 26 Oct 14:01:53 14:07:03 83° 256° (WSW) 14:12:13 437.125 CW, 437.150 USB
Sapphire 26 Oct 14:04:38 14:09:34 36° 249° (WSW) 14:14:27 437.095 MHz 1200 baud AX-25 AFSK
Gurwin Techsat 1B 26 Oct 14:09:54 14:14:24 29° 65° (ENE) 14:18:54 435.225 FM
AO-7 26 Oct 14:19:01 14:24:06 18° 45° (NE) 14:29:11 29.400 - 29.500 MHz
TMSAT-1 26 Oct 14:20:03 14:24:25 27° 64° (ENE) 14:28:48 436.925 FM
AO-27 26 Oct 14:24:19 14:29:29 70° 73° (ENE) 14:34:43 436.795 MHz FM
Saudisat 1A 26 Oct 14:25:50 14:28:00 13° 32° (NNE) 14:30:10 436.775 MHz
PCSat 26 Oct 14:27:36 14:31:40 22° 253° (WSW) 14:35:43 145.825 MHz
AO-Echo 26 Oct 14:27:55 14:32:51 90° 258° (WSW) 14:37:59 ?
Oscar 16 26 Oct 14:48:50 14:53:23 31° 264° (W) 14:57:57 437.025 USB, Beacon 2401.1428
UOSAT-12 26 Oct 14:50:36 14:55:11 64° 121° (ESE) 14:59:53 437.025 FM, 437.400 FM
ISS 26 Oct 14:52:29 14:55:27 28° 346° (NNW) 14:58:24 145.800 FM
Uribyol 2 26 Oct 15:11:19 15:16:18 44° 261° (W) 15:21:18 436.500 FM
ITAMSAT 1 26 Oct 15:17:58 15:22:51 41° 262° (W) 15:27:48 435.822 SSB
SO-50 26 Oct 15:20:32 15:23:14 15° 328° (NNW) 15:25:58 436.795 FM
JAS-1B 26 Oct 15:35:53 15:39:54 19° 269° (W) 15:43:49 435.800 - 435.900 CW/SSB
Oscar 19 26 Oct 15:46:42 15:47:10 10° 274° (W) 15:47:38 437.125 CW, 437.150 USB
Gurwin Techsat 1B 26 Oct 15:49:12 15:54:11 41° 262° (W) 15:59:13 435.225 FM
KITSAT 1 26 Oct 15:58:46 16:04:10 19° 340° (NNW) 16:09:35 435.175 FM
TMSAT-1 26 Oct 15:59:03 16:04:06 45° 262° (W) 16:09:11 436.925 FM
Saudisat 1A 26 Oct 16:04:02 16:08:27 64° 52° (NE) 16:12:50 436.775 MHz
AO-27 26 Oct 16:06:24 16:09:31 16° 270° (W) 16:12:39 436.795 MHz FM
AO-7 26 Oct 16:07:15 16:15:26 68° 67° (ENE) 16:23:39 29.400 - 29.500 MHz
AO-Echo 26 Oct 16:11:09 16:12:24 11° 274° (W) 16:13:40 ?
Uosat F 26 Oct 16:14:48 16:19:32 44° 69° (ENE) 16:24:19 435.120 FM
ISS 26 Oct 16:30:02 16:32:49 24° 7° (N) 16:35:37 145.800 FM
UOSAT-12 26 Oct 16:32:03 16:35:46 23° 321° (NW) 16:39:31 437.025 FM, 437.400 FM
JAS-2 26 Oct 16:46:26 16:51:41 30° 60° (ENE) 16:57:30 435.800 - 435.900 CW/SSB, 435.910 FM
Hamsat 26 Oct 17:44:15 17:48:12 41° 71° (ENE) 17:52:09 145.90 MHz
Saudisat 1A 26 Oct 17:44:52 17:47:31 16° 250° (WSW) 17:50:10 436.775 MHz
Uosat F 26 Oct 17:54:28 17:58:30 24° 266° (W) 18:02:34 435.120 FM
KITSAT 1 26 Oct 17:58:35 18:03:23 16° 11° (NNE) 18:08:09 435.175 FM
AO-7 26 Oct 18:01:57 18:08:49 29° 266° (W) 18:15:44 29.400 - 29.500 MHz
OPAL 26 Oct 18:01:59 18:06:22 31° 98° (E) 18:10:43 ?
ISS 26 Oct 18:06:41 18:09:59 58° 26° (NNE) 18:13:17 145.800 FM
JAS-2 26 Oct 18:30:24 18:36:18 54° 262° (W) 18:43:03 435.800 - 435.900 CW/SSB, 435.910 FM
SO-67 26 Oct 19:06:31 19:09:44 39° 73° (ENE) 19:12:58 435.3500 MHz FM
